| time (UTC) | temp F | wind direction | speed knots | gust knots | rain 1hr in | rain 24hr in | rain mn in | humidity % | barometer mb |
| 20260906053011 | 65 | 356 | 7.0 | 9.6 | 0.00 | 0.00 | 0.00 | 53 | 1014.9 |
| 20260906051549 | 64 | 318 | 0.9 | 5.2 | 0.00 | 0.00 | 0.00 | 56 | 1015.2 |
| 20260906050100 | 63 | 304 | 1.7 | 3.5 | 0.00 | 0.00 | 0.00 | 57 | 1015.4 |
| 20260906044534 | 63 | 293 | 1.7 | 3.5 | 0.00 | 0.00 | 0.00 | 55 | 1015.3 |
| 20260906043030 | 64 | 331 | 0.0 | 2.6 | 0.00 | 0.00 | 0.00 | 55 | 1015.3 |
| 20260906041514 | 64 | 260 | 0.0 | 2.6 | 0.00 | 0.00 | 0.00 | 55 | 1015.2 |
| 20260906040012 | 65 | 340 | 5.2 | 8.7 | 0.00 | 0.00 | 0.00 | 51 | 1014.9 |
| 20260906034603 | 65 | 330 | 5.2 | 7.8 | 0.00 | 0.00 | 0.00 | 51 | 1014.9 |
| 20260906033057 | 65 | 316 | 3.5 | 5.2 | 0.00 | 0.00 | 0.00 | 51 | 1014.8 |
| 20260906031547 | 66 | 333 | 0.9 | 4.3 | 0.00 | 0.00 | 0.00 | 52 | 1014.6 |
| 20260906030037 | 67 | 316 | 6.1 | 7.8 | 0.00 | 0.00 | 0.00 | 52 | 1014.4 |
| 20260906024521 | 68 | 320 | 7.8 | 11.3 | 0.00 | 0.00 | 0.00 | 52 | 1014.4 |
| 20260906023020 | 69 | 313 | 7.0 | 8.7 | 0.00 | 0.00 | 0.00 | 51 | 1014.4 |
| 20260906021502 | 69 | 264 | 4.3 | 4.3 | 0.00 | 0.00 | 0.00 | 51 | 1014.5 |
| 20260906020106 | 70 | 259 | 3.5 | 5.2 | 0.00 | 0.00 | 0.00 | 47 | 1014.5 |
| 20260906020002 | 70 | 257 | 3.5 | 5.2 | 0.00 | 0.00 | 0.00 | 47 | 1014.4 |
| 20260906014552 | 72 | 260 | 5.2 | 8.7 | 0.00 | 0.00 | 0.00 | 45 | 1014.4 |
| 20260906013042 | 73 | 256 | 7.8 | 9.6 | 0.00 | 0.00 | 0.00 | 44 | 1014.4 |
| 20260906011524 | 73 | 218 | 8.7 | 10.4 | 0.00 | 0.00 | 0.00 | 44 | 1014.4 |
| 20260906010024 | 73 | 221 | 8.7 | 10.4 | 0.00 | 0.00 | 0.00 | 45 | 1014.4 |
| 20260906004505 | 74 | 235 | 8.7 | 12.2 | 0.00 | 0.00 | 0.00 | 45 | 1014.3 |
| 20260906003003 | 74 | 203 | 8.7 | 12.2 | 0.00 | 0.00 | 0.00 | 44 | 1014.4 |
| 20260906001544 | 74 | 267 | 7.8 | 13.0 | 0.00 | 0.00 | 0.00 | 43 | 1014.5 |
| 20260906000044 | 73 | 239 | 9.6 | 14.8 | 0.00 | 0.00 | 0.00 | 46 | 1014.5 |
| 20260905234525 | 73 | 259 | 11.3 | 16.5 | 0.00 | 0.00 | 0.00 | 47 | 1014.5 |
| 20260905233031 | 73 | 260 | 12.2 | 16.5 | 0.00 | 0.00 | 0.00 | 45 | 1014.6 |
| 20260905231507 | 73 | 244 | 13.0 | 15.6 | 0.00 | 0.00 | 0.00 | 46 | 1014.6 |
| 20260905230006 | 72 | 215 | 11.3 | 15.6 | 0.00 | 0.00 | 0.00 | 47 | 1014.6 |
| 20260905224610 | 71 | 207 | 7.8 | 12.2 | 0.00 | 0.00 | 0.00 | 51 | 1014.6 |
| 20260905223051 | 72 | 260 | 11.3 | 14.8 | 0.00 | 0.00 | 0.00 | 49 | 1014.8 |
| 20260905221550 | 75 | 222 | 7.0 | 10.4 | 0.00 | 0.00 | 0.00 | 38 | 1015.1 |
| 20260905220046 | 74 | 205 | 2.6 | 7.8 | 0.00 | 0.00 | 0.00 | 39 | 1015.1 |
| 20260905214544 | 73 | 146 | 3.5 | 6.1 | 0.00 | 0.00 | 0.00 | 40 | 1015.4 |
| 20260905213041 | 73 | 156 | 4.3 | 8.7 | 0.00 | 0.00 | 0.00 | 40 | 1015.5 |
| 20260905211545 | 72 | 128 | 0.0 | 4.3 | 0.00 | 0.00 | 0.00 | 41 | 1015.6 |
| 20260905210050 | 71 | 11 | 3.5 | 6.1 | 0.00 | 0.00 | 0.00 | 43 | 1015.7 |
| 20260905204534 | 71 | 336 | 0.0 | 5.2 | 0.00 | 0.00 | 0.00 | 45 | 1015.8 |
| 20260905203015 | 70 | 72 | 7.0 | 9.6 | 0.00 | 0.00 | 0.00 | 46 | 1016.0 |
| 20260905201514 | 70 | 345 | 6.1 | 9.6 | 0.00 | 0.00 | 0.00 | 46 | 1016.1 |
| 20260905200120 | 70 | 1 | 7.8 | 10.4 | 0.00 | 0.00 | 0.00 | 47 | 1016.1 |
| 20260905194552 | 69 | 9 | 5.2 | 10.4 | 0.00 | 0.00 | 0.00 | 48 | 1016.2 |
| 20260905193033 | 69 | 20 | 6.1 | 8.7 | 0.00 | 0.00 | 0.00 | 48 | 1016.2 |
| 20260905191539 | 68 | 3 | 7.8 | 11.3 | 0.00 | 0.00 | 0.00 | 49 | 1016.3 |
| 20260905190014 | 68 | 338 | 4.3 | 10.4 | 0.00 | 0.00 | 0.00 | 49 | 1016.4 |
| 20260905184512 | 68 | 5 | 4.3 | 10.4 | 0.00 | 0.00 | 0.00 | 49 | 1016.6 |
| 20260905183054 | 67 | 343 | 3.5 | 8.7 | 0.00 | 0.00 | 0.00 | 50 | 1016.8 |
| 20260905181551 | 67 | 59 | 6.1 | 12.2 | 0.00 | 0.00 | 0.00 | 49 | 1016.8 |
| 20260905180036 | 67 | 75 | 7.0 | 9.6 | 0.00 | 0.00 | 0.00 | 50 | 1017.0 |
| 20260905174533 | 67 | 340 | 4.3 | 7.8 | 0.00 | 0.00 | 0.00 | 52 | 1017.1 |
| 20260905173011 | 65 | 352 | 5.2 | 7.8 | 0.00 | 0.00 | 0.00 | 53 | 1017.2 |
| 20260905171529 | 65 | 25 | 3.5 | 9.6 | 0.00 | 0.00 | 0.00 | 53 | 1017.1 |
| 20260905170057 | 65 | 332 | 3.5 | 7.8 | 0.00 | 0.00 | 0.00 | 54 | 1017.1 |
| 20260905164550 | 64 | 46 | 7.0 | 10.4 | 0.00 | 0.00 | 0.00 | 54 | 1016.9 |
| 20260905163030 | 64 | 63 | 8.7 | 10.4 | 0.00 | 0.00 | 0.00 | 54 | 1016.9 |
| 20260905161536 | 64 | 33 | 7.0 | 9.6 | 0.00 | 0.00 | 0.00 | 56 | 1016.9 |
| 20260905160015 | 62 | 6 | 6.1 | 7.8 | 0.00 | 0.00 | 0.00 | 61 | 1016.9 |
| 20260905154502 | 60 | 343 | 0.9 | 5.2 | 0.00 | 0.00 | 0.00 | 71 | 1016.9 |
| 20260905153046 | 58 | 312 | 3.5 | 5.2 | 0.00 | 0.00 | 0.00 | 76 | 1017.0 |
| 20260905151546 | 58 | 277 | 3.5 | 6.1 | 0.00 | 0.00 | 0.00 | 79 | 1017.3 |
| 20260905150044 | 58 | 269 | 2.6 | 6.1 | 0.00 | 0.00 | 0.00 | 78 | 1017.3 |
| 20260905144550 | 58 | 118 | 0.9 | 2.6 | 0.00 | 0.00 | 0.00 | 76 | 1017.3 |
| 20260905143040 | 57 | 104 | 0.9 | 3.5 | 0.00 | 0.00 | 0.00 | 76 | 1017.0 |
| 20260905141537 | 57 | 291 | 1.7 | 4.3 | 0.00 | 0.00 | 0.00 | 77 | 1016.8 |
| 20260905140039 | 56 | 263 | 3.5 | 6.1 | 0.00 | 0.00 | 0.00 | 78 | 1016.7 |
| 20260905134533 | 57 | 279 | 6.1 | 8.7 | 0.00 | 0.00 | 0.00 | 76 | 1016.6 |
| 20260905133011 | 58 | 266 | 3.5 | 6.1 | 0.00 | 0.00 | 0.00 | 73 | 1016.5 |
| 20260905131510 | 57 | 347 | 0.0 | 1.7 | 0.00 | 0.00 | 0.00 | 69 | 1016.2 |
| 20260905130053 | 57 | 155 | 0.0 | 2.6 | 0.00 | 0.00 | 0.00 | 67 | 1016.0 |
| 20260905124550 | 59 | 276 | 0.0 | 5.2 | 0.00 | 0.00 | 0.00 | 66 | 1015.7 |
| 20260905123031 | 59 | 359 | 8.7 | 11.3 | 0.00 | 0.00 | 0.00 | 63 | 1015.4 |
| 20260905121530 | 59 | 15 | 3.5 | 5.2 | 0.00 | 0.00 | 0.00 | 59 | 1015.6 |
| 20260905120012 | 59 | 16 | 0.9 | 4.3 | 0.00 | 0.00 | 0.00 | 59 | 1015.7 |
| 20260905114512 | 58 | 349 | 4.3 | 5.2 | 0.00 | 0.00 | 0.00 | 62 | 1015.8 |
| 20260905113053 | 57 | 263 | 3.5 | 4.3 | 0.00 | 0.00 | 0.00 | 66 | 1015.8 |
| 20260905111606 | 56 | 276 | 3.5 | 5.2 | 0.00 | 0.00 | 0.00 | 67 | 1015.7 |
| 20260905110035 | 57 | 353 | 1.7 | 3.5 | 0.00 | 0.00 | 0.00 | 62 | 1015.6 |
| 20260905104543 | 57 | 10 | 0.0 | 2.6 | 0.00 | 0.00 | 0.00 | 62 | 1015.7 |
| 20260905103021 | 57 | 32 | 2.6 | 3.5 | 0.00 | 0.00 | 0.00 | 60 | 1015.4 |
| 20260905101521 | 58 | 45 | 1.7 | 4.3 | 0.00 | 0.00 | 0.00 | 59 | 1015.4 |
| 20260905100019 | 59 | 77 | 2.6 | 3.5 | 0.00 | 0.00 | 0.00 | 59 | 1015.3 |
| 20260905094518 | 62 | 338 | 1.7 | 3.5 | 0.00 | 0.00 | 0.00 | 54 | 1015.3 |
| 20260905093018 | 59 | 263 | 3.5 | 4.3 | 0.00 | 0.00 | 0.00 | 61 | 1015.3 |
| 20260905091518 | 58 | 269 | 1.7 | 7.0 | 0.00 | 0.00 | 0.00 | 64 | 1015.3 |
| 20260905090021 | 58 | 256 | 4.3 | 10.4 | 0.00 | 0.00 | 0.00 | 68 | 1015.3 |
| 20260905084522 | 59 | 242 | 7.8 | 10.4 | 0.00 | 0.00 | 0.00 | 66 | 1015.2 |
| 20260905083058 | 59 | 281 | 6.1 | 8.7 | 0.00 | 0.00 | 0.00 | 63 | 1014.9 |
| 20260905081611 | 62 | 259 | 6.1 | 7.8 | 0.00 | 0.00 | 0.00 | 57 | 1014.8 |
| 20260905080051 | 63 | 332 | 7.0 | 9.6 | 0.00 | 0.00 | 0.00 | 50 | 1014.6 |
| 20260905074638 | 63 | 333 | 0.9 | 7.8 | 0.00 | 0.00 | 0.00 | 50 | 1014.7 |
| 20260905073034 | 63 | 349 | 4.3 | 7.8 | 0.00 | 0.00 | 0.00 | 49 | 1014.5 |
| 20260905071518 | 63 | 346 | 6.1 | 10.4 | 0.00 | 0.00 | 0.00 | 49 | 1014.4 |
| 20260905070100 | 63 | 349 | 7.0 | 10.4 | 0.00 | 0.00 | 0.00 | 50 | 1014.4 |
| 20260905064602 | 63 | 350 | 6.1 | 9.6 | 0.00 | 0.00 | 0.00 | 51 | 1014.3 |
| 20260905063040 | 62 | 345 | 7.8 | 11.3 | 0.00 | 0.00 | 0.00 | 51 | 1014.1 |
| 20260905061603 | 62 | 348 | 7.0 | 9.6 | 0.00 | 0.00 | 0.00 | 51 | 1014.2 |
| 20260905060022 | 61 | 13 | 3.5 | 7.0 | 0.00 | 0.00 | 0.00 | 53 | 1014.1 |
| 20260905054521 | 61 | 277 | 0.0 | 3.5 | 0.00 | 0.00 | 0.00 | 56 | 1014.1 |